• en France
  • Liste des pays
  • À 7 jours
  • Température de l'eau
  • Carte satellitaire
  • Carte météo
  • Widgets météo
  • user-avatar
    Se connecter

    Météo par heure à Uncukul

    Ce jour, 17 Octobre, Mercredi

    Heure Température Précipitation Vent Pression Humidité
    00:00 +13°C° 0 mm 2 m/s 700 mmHg 76%
    01:00 +13°C° 0 mm 2 m/s 700 mmHg 75%
    02:00 +12°C° 0 mm 2 m/s 700 mmHg 74%
    03:00 +13°C° 0 mm 2 m/s 700 mmHg 70%
    04:00 +12°C° 0 mm 2 m/s 700 mmHg 69%
    05:00 +12°C° 0 mm 2 m/s 700 mmHg 68%
    06:00 +12°C° 0 mm 2 m/s 700 mmHg 66%
    07:00 +14°C° 0 mm 2 m/s 700 mmHg 59%
    08:00 +16°C° 0 mm 1 m/s 700 mmHg 51%
    09:00 +19°C° 0 mm 2 m/s 701 mmHg 44%
    10:00 +19°C° 0 mm 2 m/s 701 mmHg 43%
    11:00 +20°C° 0 mm 2 m/s 700 mmHg 43%
    12:00 +21°C° 0 mm 3 m/s 700 mmHg 42%
    13:00 +21°C° 0 mm 3 m/s 700 mmHg 45%
    14:00 +21°C° 0 mm 3 m/s 700 mmHg 49%
    15:00 +20°C° 0 mm 3 m/s 700 mmHg 52%
    16:00 +18°C° 0 mm 2 m/s 699 mmHg 63%
    17:00 +17°C° 0 mm 2 m/s 699 mmHg 73%
    18:00 +15°C° 0 mm 1 m/s 699 mmHg 84%
    19:00 +15°C° 0 mm 1 m/s 699 mmHg 83%
    20:00 +14°C° 0 mm 1 m/s 699 mmHg 82%
    21:00 +14°C° 0 mm 1 m/s 698 mmHg 81%
    22:00 +14°C° 0 mm 1 m/s 698 mmHg 78%
    23:00 +13°C° 0 mm 1 m/s 698 mmHg 75%

    Demain, 18 Octobre, Jeudi

    Heure Température Précipitation Vent Pression Humidité
    00:00 +13°C° 0 mm 1 m/s 698 mmHg 71%
    01:00 +13°C° 0 mm 1 m/s 698 mmHg 68%
    02:00 +13°C° 0 mm 1 m/s 698 mmHg 65%
    03:00 +12°C° 0 mm 1 m/s 698 mmHg 62%
    04:00 +12°C° 0 mm 1 m/s 697 mmHg 58%
    05:00 +12°C° 0 mm 1 m/s 697 mmHg 54%
    06:00 +12°C° 0 mm 1 m/s 697 mmHg 51%
    07:00 +14°C° 0 mm 1 m/s 698 mmHg 46%
    08:00 +16°C° 0 mm 1 m/s 698 mmHg 40%
    09:00 +19°C° 0 mm 1 m/s 699 mmHg 35%
    10:00 +20°C° 0 mm 1 m/s 699 mmHg 35%
    11:00 +20°C° 0 mm 2 m/s 699 mmHg 35%
    12:00 +21°C° 0 mm 2 m/s 699 mmHg 35%
    13:00 +21°C° 0 mm 2 m/s 698 mmHg 38%
    14:00 +20°C° 0 mm 2 m/s 698 mmHg 42%
    15:00 +20°C° 0 mm 2 m/s 698 mmHg 46%
    16:00 +18°C° 0 mm 2 m/s 698 mmHg 57%
    17:00 +16°C° 0 mm 2 m/s 698 mmHg 68%
    18:00 +14°C° 0 mm 1 m/s 697 mmHg 79%
    19:00 +14°C° 0 mm 1 m/s 697 mmHg 77%
    20:00 +14°C° 0 mm 1 m/s 698 mmHg 74%
    21:00 +14°C° 0 mm 2 m/s 698 mmHg 72%
    22:00 +13°C° 0 mm 2 m/s 698 mmHg 68%
    23:00 +13°C° 0 mm 2 m/s 697 mmHg 65%

    Après-demain, 19 Octobre, Vendredi

    Heure Température Précipitation Vent Pression Humidité
    00:00 +13°C° 0 mm 2 m/s 697 mmHg 61%
    01:00 +13°C° 0 mm 2 m/s 697 mmHg 59%
    02:00 +13°C° 0 mm 2 m/s 697 mmHg 57%
    03:00 +12°C° 0 mm 2 m/s 697 mmHg 55%
    04:00 +12°C° 0 mm 2 m/s 697 mmHg 53%
    05:00 +12°C° 0 mm 2 m/s 697 mmHg 52%
    06:00 +12°C° 0 mm 2 m/s 696 mmHg 50%
    07:00 +14°C° 0 mm 2 m/s 697 mmHg 45%
    08:00 +17°C° 0 mm 2 m/s 697 mmHg 39%
    09:00 +19°C° 0 mm 2 m/s 698 mmHg 33%
    10:00 +20°C° 0 mm 2 m/s 698 mmHg 31%
    11:00 +21°C° 0 mm 2 m/s 698 mmHg 29%
    12:00 +22°C° 0 mm 3 m/s 698 mmHg 27%
    13:00 +22°C° 0 mm 3 m/s 697 mmHg 31%
    14:00 +22°C° 0 mm 3 m/s 697 mmHg 35%
    15:00 +21°C° 0 mm 3 m/s 697 mmHg 39%
    16:00 +19°C° 0 mm 2 m/s 696 mmHg 49%
    17:00 +17°C° 0 mm 2 m/s 696 mmHg 59%
    18:00 +15°C° 0 mm 2 m/s 696 mmHg 68%
    19:00 +15°C° 0 mm 2 m/s 696 mmHg 66%
    20:00 +15°C° 0 mm 2 m/s 696 mmHg 64%
    21:00 +15°C° 0 mm 2 m/s 696 mmHg 62%
    22:00 +14°C° 0 mm 2 m/s 696 mmHg 61%
    23:00 +14°C° 0 mm 2 m/s 695 mmHg 60%

    20 Octobre, Samedi

    Heure Température Précipitation Vent Pression Humidité
    00:00 +14°C° 0 mm 2 m/s 695 mmHg 59%
    01:00 +14°C° 0 mm 2 m/s 695 mmHg 58%
    02:00 +14°C° 0 mm 2 m/s 695 mmHg 57%
    03:00 +13°C° 0 mm 2 m/s 694 mmHg 56%
    04:00 +13°C° 0 mm 2 m/s 694 mmHg 53%
    05:00 +13°C° 0 mm 2 m/s 694 mmHg 49%
    06:00 +13°C° 0 mm 2 m/s 694 mmHg 46%
    07:00 +16°C° 0 mm 2 m/s 694 mmHg 40%
    08:00 +18°C° 0 mm 2 m/s 695 mmHg 34%
    09:00 +22°C° 0 mm 1 m/s 695 mmHg 28%
    10:00 +23°C° 0 mm 1 m/s 695 mmHg 27%
    11:00 +24°C° 0 mm 2 m/s 695 mmHg 25%
    12:00 +25°C° 0 mm 2 m/s 695 mmHg 24%
    13:00 +24°C° 0 mm 2 m/s 695 mmHg 27%
    14:00 +24°C° 0 mm 2 m/s 694 mmHg 29%
    15:00 +24°C° 0 mm 2 m/s 694 mmHg 32%
    16:00 +21°C° 0 mm 2 m/s 694 mmHg 40%
    17:00 +19°C° 0 mm 1 m/s 694 mmHg 47%
    18:00 +16°C° 0 mm 1 m/s 694 mmHg 55%
    19:00 +16°C° 0 mm 1 m/s 694 mmHg 52%
    20:00 +16°C° 0 mm 1 m/s 694 mmHg 49%
    21:00 +16°C° 0 mm 1 m/s 694 mmHg 46%
    22:00 +15°C° 0 mm 1 m/s 694 mmHg 44%
    23:00 +15°C° 0 mm 1 m/s 694 mmHg 42%

    21 Octobre, Dimanche

    Heure Température Précipitation Vent Pression Humidité
    00:00 +15°C° 0 mm 1 m/s 693 mmHg 39%
    01:00 +15°C° 0 mm 1 m/s 693 mmHg 38%
    02:00 +14°C° 0 mm 1 m/s 693 mmHg 37%
    03:00 +14°C° 0 mm 1 m/s 693 mmHg 36%
    04:00 +14°C° 0 mm 1 m/s 693 mmHg 37%
    05:00 +14°C° 0 mm 1 m/s 693 mmHg 37%
    06:00 +14°C° 0 mm 1 m/s 693 mmHg 37%
    07:00 +16°C° 0 mm 1 m/s 693 mmHg 34%
    08:00 +19°C° 0 mm 1 m/s 694 mmHg 32%
    09:00 +19°C° 0 mm 0 m/s 694 mmHg 29%
    10:00 +22°C° 0 mm 1 m/s 694 mmHg 29%
    11:00 +22°C° 0 mm 1 m/s 694 mmHg 29%
    12:00 +23°C° 0 mm 2 m/s 694 mmHg 29%
    13:00 +23°C° 0 mm 2 m/s 694 mmHg 32%
    14:00 +21°C° 0 mm 2 m/s 694 mmHg 35%
    15:00 +21°C° 0 mm 2 m/s 693 mmHg 38%
    16:00 +20°C° 0 mm 1 m/s 693 mmHg 45%
    17:00 +19°C° 0 mm 1 m/s 693 mmHg 52%
    18:00 +16°C° 0 mm 1 m/s 693 mmHg 60%
    19:00 +16°C° 0 mm 1 m/s 693 mmHg 60%
    20:00 +16°C° 0 mm 1 m/s 693 mmHg 60%
    21:00 +16°C° 0 mm 1 m/s 693 mmHg 61%
    22:00 +15°C° 0 mm 1 m/s 693 mmHg 61%
    23:00 +15°C° 0 mm 1 m/s 693 mmHg 62%

    22 Octobre, Lundi

    Heure Température Précipitation Vent Pression Humidité
    00:00 +15°C° 0 mm 1 m/s 693 mmHg 63%
    01:00 +15°C° 0 mm 1 m/s 693 mmHg 63%
    02:00 +14°C° 0 mm 1 m/s 693 mmHg 64%
    03:00 +14°C° 0 mm 1 m/s 693 mmHg 65%
    04:00 +14°C° 0 mm 1 m/s 693 mmHg 65%
    05:00 +14°C° 0 mm 1 m/s 693 mmHg 66%
    06:00 +14°C° 0 mm 1 m/s 693 mmHg 66%
    07:00 +15°C° 0 mm 1 m/s 693 mmHg 62%
    08:00 +18°C° 0 mm 1 m/s 694 mmHg 57%
    09:00 +19°C° 0 mm 1 m/s 694 mmHg 53%
    10:00 +20°C° 0 mm 1 m/s 694 mmHg 51%
    11:00 +21°C° 0 mm 1 m/s 694 mmHg 50%
    12:00 +21°C° 0 mm 2 m/s 694 mmHg 48%
    13:00 +21°C° 0 mm 2 m/s 694 mmHg 51%
    14:00 +20°C° 0 mm 2 m/s 694 mmHg 53%
    15:00 +20°C° 0 mm 2 m/s 694 mmHg 55%
    16:00 +20°C° 0 mm 1 m/s 694 mmHg 63%
    17:00 +18°C° 0 mm 1 m/s 694 mmHg 72%
    18:00 +16°C° 0 mm 1 m/s 695 mmHg 80%
    19:00 +16°C° 0.1 mm 1 m/s 695 mmHg 80%
    20:00 +16°C° 0.1 mm 1 m/s 695 mmHg 80%
    21:00 +15°C° 0.1 mm 1 m/s 695 mmHg 80%
    22:00 +15°C° 0.1 mm 1 m/s 695 mmHg 80%
    23:00 +15°C° 0.1 mm 1 m/s 695 mmHg 79%
    Voir plus